Home   Weather   Stephenville   Past weeks

Flag for Canada Past Weather in Stephenville, Newfoundland and Labrador, Canada — Yesterday and Last 2 Weeks

Now
63 °F

Scattered clouds.


Feels Like: 63 °F
Forecast: 53 / 64 °F
Wind: 14 mph from North

Location: Stephenville

Current Time: Aug 18, 2017 at 5:51:16 pm

Latest Report: Aug 18, 2017 at 4:30 pm


Visibility: 15 mi

Pressure: 29.93 "Hg

Humidity: 64%

Dew Point: 50 °F

Location of StephenvilleLocation

Past Weather in Stephenville — Graph

°F

Stephenville Temperature Yesterday

Maximum temperature yesterday: 66 °F (at 1:30 pm)
Minimum temperature yesterday: 55 °F (at 6:30 am)
Average temperature yesterday: 60 °F

High & Low Weather Summary for the Past Weeks

 TemperatureHumidityPressure
High77 °F (Aug 12, 1:30 pm)100% (Aug 7, 3:30 am)30.26 "Hg (Aug 7, 3:30 am)
Low52 °F (Aug 11, 3:30 am)22% (Aug 4, 12:30 pm)29.59 "Hg (Aug 17, 4:30 pm)
Average64 °F80%29.95 "Hg
* Reported Aug 3 4:30 pm — Aug 18 4:30 pm, Stephenville. Weather by CustomWeather, © 2017

Note: Actual official high and low records may vary slightly from our data, if they occured in-between our weather recording intervals... More about our weather records

Advertising

Stephenville Weather History for the Previous 24 Hours

Scroll right to see more
 ConditionsComfort  
Time TempWeatherWind HumidityBarometerVisibility
4:30 pm
Fri, Aug 18
63 °FScattered clouds.14 mph64%29.93 "Hg15 mi
3:30 pm63 °FPassing clouds.20 mph59%29.92 "Hg15 mi
2:30 pm64 °FScattered clouds.17 mph60%29.91 "Hg15 mi
1:30 pm64 °FScattered clouds.16 mph64%29.89 "Hg15 mi
12:30 pm63 °FScattered clouds.16 mph68%29.87 "Hg15 mi
11:30 am59 °FPartly sunny.24 mph72%29.85 "Hg15 mi
10:30 am57 °FPartly sunny.15 mph82%29.84 "Hg15 mi
9:30 am57 °FBroken clouds.18 mph82%29.81 "Hg15 mi
8:30 am57 °FPartly sunny.18 mph82%29.79 "Hg15 mi
7:30 am55 °FPartly sunny.15 mph88%29.76 "Hg15 mi
6:30 am55 °FBroken clouds.12 mph88%29.74 "Hg15 mi
5:30 am55 °FPassing clouds.12 mph88%29.70 "Hg15 mi
4:30 am55 °FPassing clouds.8 mph88%29.67 "Hg15 mi
3:30 am55 °FPassing clouds.3 mph94%29.66 "Hg15 mi
3:27 am55 °FPassing clouds.3 mph94%29.66 "Hg15 mi
2:30 am55 °FLight rain. Passing clouds.7 mph94%29.65 "Hg15 mi
1:30 am55 °FLight rain. Passing clouds.5 mph94%29.66 "Hg15 mi
12:32 am55 °FLight rain. Overcast.9 mph88%29.66 "Hg15 mi
11:30 pm
Thu, Aug 17
57 °FPassing clouds.6 mph77%29.67 "Hg15 mi
10:30 pm55 °FPassing clouds.7 mph82%29.66 "Hg15 mi
9:30 pm55 °FPassing clouds.6 mph77%29.65 "Hg15 mi
8:30 pm57 °FPartly cloudy.12 mph72%29.62 "Hg15 mi
7:30 pm61 °FBroken clouds.10 mph59%29.60 "Hg15 mi
6:30 pm61 °FPartly sunny.12 mph55%29.59 "Hg15 mi
5:30 pm63 °FPartly sunny.9 mph52%29.60 "Hg15 mi
Weather by CustomWeather, © 2017

See weather overviewHow to use our weather pages